TimeEST,TemperatureF,Dew PointF,Humidity,Sea Level PressureIn,VisibilityMPH,Wind Direction,Wind SpeedMPH,Gust SpeedMPH,PrecipitationIn,Events,Conditions,WindDirDegrees,DateUTC
12:52 AM,39.0,19.0,45,29.88,10.0,NW,10.4,19.6,N/A,,Clear,310,2013-02-20 05:52:00
1:52 AM,39.0,18.0,43,29.89,10.0,WNW,12.7,-,N/A,,Partly Cloudy,300,2013-02-20 06:52:00
2:52 AM,37.9,18.0,45,29.90,10.0,NNW,19.6,25.3,N/A,,Mostly Cloudy,330,2013-02-20 07:52:00
3:52 AM,36.0,17.1,46,29.92,10.0,NW,12.7,24.2,N/A,,Mostly Cloudy,320,2013-02-20 08:52:00
4:52 AM,35.1,14.0,42,29.93,10.0,NNW,10.4,20.7,N/A,,Partly Cloudy,330,2013-02-20 09:52:00
5:52 AM,34.0,14.0,44,29.96,10.0,NNW,12.7,21.9,N/A,,Scattered Clouds,330,2013-02-20 10:52:00
6:52 AM,34.0,12.0,40,30.00,10.0,WNW,15.0,23.0,N/A,,Mostly Cloudy,300,2013-02-20 11:52:00
7:52 AM,33.1,10.9,40,30.02,10.0,NNW,15.0,28.8,N/A,,Scattered Clouds,330,2013-02-20 12:52:00
8:52 AM,35.1,10.9,37,30.03,10.0,WNW,19.6,32.2,N/A,,Scattered Clouds,300,2013-02-20 13:52:00
9:52 AM,35.1,10.9,37,30.04,10.0,NW,18.4,25.3,N/A,,Mostly Cloudy,320,2013-02-20 14:52:00
10:52 AM,35.1,10.9,37,30.05,10.0,NW,23.0,31.1,N/A,,Mostly Cloudy,320,2013-02-20 15:52:00
11:52 AM,37.0,12.9,37,30.04,10.0,West,13.8,21.9,N/A,,Mostly Cloudy,270,2013-02-20 16:52:00
12:52 PM,39.0,12.9,34,30.02,10.0,NNW,12.7,23.0,N/A,,Mostly Cloudy,330,2013-02-20 17:52:00
1:52 PM,39.9,12.9,33,30.01,10.0,NNW,18.4,28.8,N/A,,Scattered Clouds,330,2013-02-20 18:52:00
2:52 PM,39.9,12.9,33,30.01,10.0,NNW,19.6,27.6,N/A,,Mostly Cloudy,330,2013-02-20 19:52:00
3:52 PM,39.9,10.9,31,30.03,10.0,NW,17.3,28.8,N/A,,Partly Cloudy,320,2013-02-20 20:52:00
4:52 PM,37.9,10.9,33,30.06,10.0,NNW,25.3,31.1,N/A,,Partly Cloudy,330,2013-02-20 21:52:00
5:52 PM,33.8,12.2,41,30.09,10.0,NNW,19.6,26.5,N/A,,Partly Cloudy,330,2013-02-20 22:52:00
6:52 PM,32.0,10.9,42,30.12,10.0,NNW,21.9,31.1,N/A,,Partly Cloudy,330,2013-02-20 23:52:00
7:52 PM,30.9,9.0,40,30.15,10.0,NW,17.3,24.2,N/A,,Partly Cloudy,320,2013-02-21 00:52:00
8:52 PM,28.9,8.1,41,30.16,10.0,NW,17.3,23.0,N/A,,Partly Cloudy,320,2013-02-21 01:52:00
9:52 PM,28.4,6.8,40,30.18,10.0,WNW,13.8,-,N/A,,Clear,300,2013-02-21 02:52:00
10:52 PM,27.0,7.0,43,30.19,10.0,NNW,13.8,21.9,N/A,,Partly Cloudy,330,2013-02-21 03:52:00
11:52 PM,27.0,6.1,41,30.19,10.0,NW,13.8,19.6,N/A,,Scattered Clouds,310,2013-02-21 04:52:00